Flag for Germany Weather past 2 weeks in Bingen am Rhein, Rhineland-Palatinate, Germany

Now
68 °F

Sunny.


Feels Like: 68 °F
Forecast: 57 / 73 °F
Wind: 10 mph from North

Location: Wiesbaden Airport

Current Time: Aug 29, 2014 at 11:13:14 PM

Latest Report: Aug 29, 2014 at 8:58 PM


Visibility: N/A

Pressure: 30.01 "Hg

Humidity: 73%

Dew point: 59 °F

Location of Bingen am RheinLocation

Historic Weather in Bingen am Rhein — Graph

°F

Bingen am Rhein temperature yesterday

Maximum temperature yesterday: 73 °F (at 2:59 PM)
Minimum temperature yesterday: 52 °F (at 4:58 AM)
Average temperature yesterday: 63 °F

Past Weeks' High & Low Weather Summary

 TemperatureHumidityPressure
High75 °F (Aug 29, 4:58 PM)100% (Aug 15, 12:58 AM)30.14 "Hg (Aug 15, 12:58 AM)
Low45 °F (Aug 22, 6:58 AM)43% (Aug 21, 6:58 PM)29.66 "Hg (Aug 26, 8:04 AM)
Average59 °F78%29.96 "Hg
* Reported Aug 14 8:58 PM — Aug 29 8:58 PM, Bingen am Rhein, Weather by CustomWeather, © 2014

Note: Actual official high and low records may vary slightly from our data, if they occured in-between our weather recording intervals... More about our weather records

Advertising

Bingen am Rhein weather history for previous 24 hours

 ConditionsComfort  
Time TempWeatherWind HumidityBarometerVisibility
8:58 PM
Aug 29
68 °FSunny.10 mph73%30.01 "HgN/A
7:58 PM71 °FScattered clouds.2 mph63%29.98 "HgN/A
6:58 PM73 °FSunny.7 mph61%29.98 "HgN/A
5:58 PM74 °FSunny.6 mph58%29.98 "HgN/A
4:58 PM75 °FPassing clouds.7 mph53%29.99 "HgN/A
3:58 PM74 °FScattered clouds.10 mph53%30.01 "HgN/A
2:58 PM74 °FPassing clouds.9 mph54%30.01 "HgN/A
1:04 PM72 °FPartly sunny.6 mph61%30.04 "HgN/A
12:58 PM72 °FScattered clouds.7 mph61%30.03 "HgN/A
11:58 AM69 °FPassing clouds.5 mph71%30.03 "HgN/A
11:04 AM68 °FPartly sunny.6 mph73%30.04 "HgN/A
10:58 AM68 °FBroken clouds.3 mph78%30.03 "HgN/A
9:58 AM65 °FBroken clouds.7 mph81%30.03 "HgN/A
8:58 AM64 °FPartly sunny.5 mph83%30.01 "HgN/A
7:58 AM63 °FSunny.5 mph85%29.99 "HgN/A
6:58 AM61 °FPartly cloudy.6 mph97%29.99 "HgN/A
5:58 AM61 °FOvercast.2 mph94%29.98 "HgN/A
4:58 AM59 °FPassing clouds.3 mph99%29.98 "HgN/A
3:58 AM59 °FPassing clouds.No wind100%29.98 "HgN/A
2:58 AM62 °FOvercast.No wind91%29.98 "HgN/A
1:58 AM61 °FPassing clouds.3 mph92%29.98 "HgN/A
12:58 AM63 °FPartly cloudy.3 mph87%29.99 "HgN/A
11:58 PM
Aug 28
64 °FOvercast.2 mph83%29.99 "HgN/A
Weather by CustomWeather, © 2014

See weather overviewHow to use our weather pages